Weather Roundup
Issued by NWS Corpus Christi, TX

Home | Current Version | Previous Version | Text Only | Print | Product List | Glossary On
Versions: 1 2 3 4 5 6 7 8 9 10 11 12 13 14 15 16 17 18 19 20 21 22 23 24 25 26 27 28 29 30 31 32 33 34 35 36 37 38 39 40 41 42 43 44 45 46 47 48 49 50
000
ASUS44 KCRP 300110
HRRCRP

SOUTH TEXAS REGIONAL WEATHER ROUNDUP
NATIONAL WEATHER SERVICE CORPUS CHRISTI TX
800 PM CDT TUE JUL 29 2014


TXZ229>244-300200-
...CORPUS CHRISTI AREA OBSERVATIONS...

CITY           SKY/WX    TMP DP  RH WIND       PRES   REMARKS
CORPUS CHRISTI MOCLDY    87  72  60 SE17      30.00R HX  93
NAS CORPUS CHR MOCLDY    84  76  76 SE17      30.00S HX  93
ROCKPORT       PTCLDY    84  75  74 SE12      29.99F HX  92
KINGSVILLE NAS MOCLDY    86  74  67 SE13      29.99R HX  94
ALICE          PTCLDY    89  68  49 SE17      29.98R HX  93
FALFURRIAS     CLEAR     84  64  51 E10G17    29.97R
$$

...VICTORIA AREA OBSERVATIONS...

CITY           SKY/WX    TMP DP  RH WIND       PRES   REMARKS
VICTORIA       MOCLDY    91  66  43 SE14      30.01R HX  93
BEEVILLE       FAIR      91  60  35 SE15      29.99S HX  90
PLEASANTON     MOCLDY    96  56  25 E8        29.97S HX  95
SAN ANTONIO    MOCLDY    94  60  32 S10       30.00S HX  94
$$

...LAREDO AREA OBSERVATIONS...

CITY           SKY/WX    TMP DP  RH WIND       PRES   REMARKS
LAREDO         CLEAR    101  56  22 E14       29.95S HX 100
COTULLA        CLEAR     98  52  21 SE9       29.95R HX  95
DEL RIO        CLEAR     98  57  25 E10G18    29.94S HX  97
MCALLEN        CLEAR     93  68  43 SE17      29.96R HX  97
HEBBRONVILLE   CLEAR     96  61  31 E18G25    29.98R HX  97
$$

...OTHER TEXAS OBSERVATIONS...

CITY           SKY/WX    TMP DP  RH WIND       PRES   REMARKS
BROWNSVILLE    CLEAR     85  75  72 SE15      29.99S HX  93
HOUSTON        MOCLDY    81  77  88 S3        30.03S
COL. STATION   PTCLDY    86  72  62 NE7       30.03S HX  92
AUSTIN         MOCLDY    87  67  51 E13       30.01S HX  90
WACO           CLEAR     84  55  36 E9        30.04F
FORT WORTH     CLOUDY    82  59  45 CALM      30.06F
WICHITA FALLS  MOCLDY    77  63  61 SE5       30.07F
LUBBOCK        CLOUDY    78  65  63 E9        30.11F
EL PASO        PTSUNNY   87  59  38 CALM      30.07F
$$

...MARINE OBSERVATIONS...

STATION/POSITION TIME  SKY/WX   TEMP    WIND        PRES    VSBY  WAVE   SWELL
                                AIR SEA DIR/SP/G                  HT/PER HT/PER
                 (UTC)          (F)     (DEG/KT/KT) (MB)    (MI)  (FT/S) (FT/S)
PORT ARANSAS     0000            82 85  110/ 11/ 12 1017.3R
BUOY 90 E PORT A 0100            84 87  160/  2/  4 1017.1F         1/ 5   2/ 5
BUOY 45 SE BAFFI 0100            84 85  120/ 12/ 14 1015.9F         1/ 5
BUOY 200 E PT IS 0100            85 87   10/  4/  6 1016.7S         1/ 6
BUOY 15 E GALVES NOT AVBL
$$


USA.gov is the U.S. government's official web portal to all federal, state and local government web resources and services.